DELTA 1 DEB, 10767

Orbit data source: Space-Track

DELTA 1 DEB, 10767 is space debris in SSO originally from a launch on Thu, 29 Jul 1976 UTC launched from the Air Force Western Test Range (AFWTR). Debris objects in space refer to the collection of defunct objects orbiting the Earth. Examples of debris include non-operational satellites, rocket bodies, and fragments generated from explosions, collisions, or faulty payload assembly.

Loading next visibility...
Identifier
10767, 1976-077BQ
Orbit
SSO
Country
Flag of USUS
Related business
Manufacturer
Unknown
Mission
Spacecraft
Bus & Motor
Unknown
Mass
Unknown
Launch date (UTC)
1976-07-29 (49 years ago)
Launch vehicle
Unknown
Launch site
Air Force Western Test Range (AFWTR)
Object type
Payload
Rocket body
Debris
Shape & HBR
Unknown shape, 0.4 m
Radar Cross Section
Medium (>0.1 m² and <1 m²)

Expand to show TLE details & history
Last TLE update: 22 hours ago

TLE from 22 hours ago
0 DELTA 1 DEB
1 10767U 76077BQ  25292.20469387  .00000018  00000-0  52878-3 0  9999
2 10767 102.4004 271.6240 0064967 315.4202  55.8323 12.31937246213195
Epoch: 2025-10-19T04:54Z
TLE epoch observation values (Epoch: 2025-10-19T04:54:45.550Z)
Latitude
11.55162°
Longitude
167.44637°
Altitude
1,514.073 km
Speed
7.122 km/s
True Right ascension
17h 56m 14s
True Declination
11° 29' 27"
Sunlit
Object was in daylight at epoch
Visualization orbit readout
Latitude
Unknown
Longitude
Unknown
Altitude
Unknown
Speed
Unknown
Apparent Right ascension
Unknown
Apparent Declination
Unknown
Sunlit
N/A
Visualization observer readout
Local Sidereal Time
21:39:32
Azimuth
Unknown
Elevation
Unknown
Doppler factor
Unknown
Orbital elements
Apogee altitude
1,590.01 km
Perigee altitude
1,487.145 km
Semi-major axis
7,916.715 km
Eccentricity
0.0065
Inclination
102.4004°
RAAN
271.624°
Arg. of periapsis
315.4202°
True anomaly
56.45108°
Mean anomaly
55.8323°
Eccentric anomaly
56.14141°
Mean motion
3.08124 °/min
Orbital period
116.84 mins
BSTAR
0.00052878
Loading maneuver chart data...
Computing Atmospheric mass density...
Loading historical data...
Loading historical data...
Loading historical data...
Loading historical data...
Loading historical data...
Loading historical data...
Loading historical data...

Documentation

Showing up to 5 results
|